| time (UTC) | temp F | wind direction | speed MPH | gust MPH | rain 1hr in | rain 24hr in | rain mn in | humidity % | barometer mb |
| 20260906234622 | 81 | 247 | 0.0 | 1.0 | 0.00 | 0.00 | 0.00 | 32 | 1011.8 |
| 20260906233652 | 81 | 192 | 1.0 | 2.0 | 0.00 | 0.00 | 0.00 | 28 | 1012.0 |
| 20260906232642 | 81 | 189 | 1.0 | 3.0 | 0.00 | 0.00 | 0.00 | 29 | 1012.0 |
| 20260906231615 | 81 | 178 | 0.0 | 2.0 | 0.00 | 0.00 | 0.00 | 30 | 1012.1 |
| 20260906230624 | 81 | 173 | 0.0 | 4.0 | 0.00 | 0.00 | 0.00 | 30 | 1012.3 |
| 20260906225625 | 81 | 253 | 0.0 | 4.0 | 0.00 | 0.00 | 0.00 | 30 | 1012.5 |
| 20260906224618 | 81 | 121 | 1.0 | 4.0 | 0.00 | 0.00 | 0.00 | 29 | 1012.8 |
| 20260906223649 | 81 | 277 | 1.0 | 3.0 | 0.00 | 0.00 | 0.00 | 28 | 1012.7 |
| 20260906222619 | 81 | 288 | 3.0 | 10.0 | 0.00 | 0.00 | 0.00 | 27 | 1012.9 |
| 20260906221629 | 82 | 266 | 6.0 | 9.0 | 0.00 | 0.00 | 0.00 | 26 | 1012.8 |
| 20260906220620 | 82 | 290 | 4.0 | 9.0 | 0.00 | 0.00 | 0.00 | 26 | 1013.0 |
| 20260906215647 | 82 | 296 | 5.0 | 14.0 | 0.00 | 0.00 | 0.00 | 26 | 1013.0 |
| 20260906214616 | 82 | 292 | 4.0 | 11.0 | 0.00 | 0.00 | 0.00 | 26 | 1013.0 |
| 20260906213626 | 82 | 304 | 2.0 | 9.0 | 0.00 | 0.00 | 0.00 | 26 | 1013.1 |
| 20260906212616 | 82 | 207 | 1.0 | 8.0 | 0.00 | 0.00 | 0.00 | 27 | 1013.1 |
| 20260906211628 | 82 | 188 | 3.0 | 10.0 | 0.00 | 0.00 | 0.00 | 26 | 1013.2 |
| 20260906210619 | 82 | 236 | 5.0 | 9.0 | 0.00 | 0.00 | 0.00 | 27 | 1013.2 |
| 20260906205620 | 82 | 317 | 4.0 | 8.0 | 0.00 | 0.00 | 0.00 | 27 | 1013.2 |
| 20260906204629 | 82 | 197 | 4.0 | 13.0 | 0.00 | 0.00 | 0.00 | 28 | 1013.3 |
| 20260906203622 | 82 | 328 | 9.0 | 14.0 | 0.00 | 0.00 | 0.00 | 27 | 1013.5 |
| 20260906202612 | 82 | 147 | 5.0 | 12.0 | 0.00 | 0.00 | 0.00 | 26 | 1013.5 |
| 20260906201621 | 82 | 360 | 5.0 | 14.0 | 0.00 | 0.00 | 0.00 | 25 | 1013.7 |
| 20260906200616 | 83 | 247 | 5.0 | 16.0 | 0.00 | 0.00 | 0.00 | 24 | 1013.6 |
| 20260906195618 | 83 | 360 | 6.0 | 14.0 | 0.00 | 0.00 | 0.00 | 25 | 1014.0 |
| 20260906194627 | 82 | 300 | 3.0 | 10.0 | 0.00 | 0.00 | 0.00 | 26 | 1014.0 |
| 20260906193618 | 81 | 82 | 5.0 | 15.0 | 0.00 | 0.00 | 0.00 | 26 | 1014.6 |
| 20260906192634 | 81 | 258 | 4.0 | 15.0 | 0.00 | 0.00 | 0.00 | 26 | 1014.4 |
| 20260906191642 | 81 | 272 | 1.0 | 17.0 | 0.00 | 0.00 | 0.00 | 26 | 1014.4 |
| 20260906190612 | 81 | 325 | 6.0 | 15.0 | 0.00 | 0.00 | 0.00 | 25 | 1014.4 |
| 20260906185614 | 81 | 232 | 11.0 | 21.0 | 0.00 | 0.00 | 0.00 | 25 | 1014.8 |
| 20260906184646 | 81 | 310 | 6.0 | 12.0 | 0.00 | 0.00 | 0.00 | 25 | 1014.8 |
| 20260906183638 | 81 | 144 | 4.0 | 15.0 | 0.00 | 0.00 | 0.00 | 26 | 1014.9 |
| 20260906182627 | 80 | 225 | 6.0 | 13.0 | 0.00 | 0.00 | 0.00 | 26 | 1014.9 |
| 20260906181617 | 80 | 292 | 9.0 | 14.0 | 0.00 | 0.00 | 0.00 | 25 | 1015.1 |
| 20260906180615 | 80 | 261 | 6.0 | 17.0 | 0.00 | 0.00 | 0.00 | 26 | 1015.2 |
| 20260906175617 | 80 | 196 | 5.0 | 10.0 | 0.00 | 0.00 | 0.00 | 25 | 1015.5 |
| 20260906174631 | 79 | 297 | 7.0 | 10.0 | 0.00 | 0.00 | 0.00 | 27 | 1015.7 |
| 20260906173620 | 79 | 217 | 5.0 | 14.0 | 0.00 | 0.00 | 0.00 | 28 | 1015.9 |
| 20260906172631 | 79 | 268 | 4.0 | 14.0 | 0.00 | 0.00 | 0.00 | 29 | 1016.0 |
| 20260906171625 | 79 | 312 | 2.0 | 8.0 | 0.00 | 0.00 | 0.00 | 28 | 1016.1 |
| 20260906170614 | 78 | 279 | 7.0 | 16.0 | 0.00 | 0.00 | 0.00 | 28 | 1016.3 |
| 20260906165637 | 78 | 155 | 5.0 | 12.0 | 0.00 | 0.00 | 0.00 | 27 | 1016.2 |
| 20260906164648 | 78 | 233 | 4.0 | 9.0 | 0.00 | 0.00 | 0.00 | 28 | 1016.3 |
| 20260906163617 | 77 | 186 | 3.0 | 11.0 | 0.00 | 0.00 | 0.00 | 28 | 1016.2 |
| 20260906162612 | 77 | 222 | 5.0 | 8.0 | 0.00 | 0.00 | 0.00 | 30 | 1016.2 |
| 20260906161643 | 76 | 259 | 5.0 | 10.0 | 0.00 | 0.00 | 0.00 | 29 | 1016.2 |
| 20260906160613 | 76 | 263 | 4.0 | 13.0 | 0.00 | 0.00 | 0.00 | 29 | 1016.2 |
| 20260906155617 | 76 | 279 | 3.0 | 11.0 | 0.00 | 0.00 | 0.00 | 29 | 1016.3 |
| 20260906154651 | 76 | 221 | 4.0 | 11.0 | 0.00 | 0.00 | 0.00 | 29 | 1016.5 |
| 20260906153639 | 75 | 188 | 3.0 | 15.0 | 0.00 | 0.00 | 0.00 | 29 | 1016.4 |
| 20260906152628 | 73 | 109 | 4.0 | 7.0 | 0.00 | 0.00 | 0.00 | 31 | 1016.5 |
| 20260906151619 | 72 | 311 | 1.0 | 5.0 | 0.00 | 0.00 | 0.00 | 32 | 1016.5 |
| 20260906150632 | 72 | 310 | 2.0 | 8.0 | 0.00 | 0.00 | 0.00 | 32 | 1016.4 |
| 20260906145612 | 71 | 275 | 2.0 | 4.0 | 0.00 | 0.00 | 0.00 | 32 | 1016.4 |
| 20260906144621 | 69 | 360 | 2.0 | 4.0 | 0.00 | 0.00 | 0.00 | 35 | 1016.3 |
| 20260906143631 | 68 | 333 | 0.0 | 4.0 | 0.00 | 0.00 | 0.00 | 37 | 1016.4 |
| 20260906142646 | 66 | 114 | 0.0 | 3.0 | 0.00 | 0.00 | 0.00 | 39 | 1016.3 |
| 20260906141613 | 65 | 360 | 0.0 | 3.0 | 0.00 | 0.00 | 0.00 | 40 | 1016.1 |
| 20260906140624 | 64 | 119 | 1.0 | 2.0 | 0.00 | 0.00 | 0.00 | 41 | 1016.3 |
| 20260906135628 | 64 | 119 | 0.0 | 5.0 | 0.00 | 0.00 | 0.00 | 40 | 1016.0 |
| 20260906134624 | 65 | 76 | 0.0 | 2.0 | 0.00 | 0.00 | 0.00 | 39 | 1015.9 |
| 20260906133615 | 66 | 342 | 0.0 | 4.0 | 0.00 | 0.00 | 0.00 | 38 | 1015.9 |
| 20260906132626 | 66 | 95 | 2.0 | 6.0 | 0.00 | 0.00 | 0.00 | 36 | 1015.6 |
| 20260906131617 | 67 | 318 | 0.0 | 0.0 | 0.00 | 0.00 | 0.00 | 35 | 1015.6 |
| 20260906130613 | 68 | 318 | 1.0 | 5.0 | 0.00 | 0.00 | 0.00 | 33 | 1015.4 |
| 20260906125617 | 69 | 134 | 2.0 | 5.0 | 0.00 | 0.00 | 0.00 | 30 | 1015.4 |
| 20260906124627 | 69 | 95 | 1.0 | 6.0 | 0.00 | 0.00 | 0.00 | 30 | 1015.4 |
| 20260906123620 | 71 | 61 | 1.0 | 10.0 | 0.00 | 0.00 | 0.00 | 29 | 1015.4 |
| 20260906122612 | 73 | 140 | 9.0 | 16.0 | 0.00 | 0.00 | 0.00 | 24 | 1015.2 |
| 20260906121622 | 74 | 144 | 6.0 | 14.0 | 0.00 | 0.00 | 0.00 | 23 | 1015.0 |
| 20260906120615 | 74 | 107 | 11.0 | 20.0 | 0.00 | 0.00 | 0.00 | 23 | 1014.9 |
| 20260906115618 | 74 | 130 | 9.0 | 17.0 | 0.00 | 0.00 | 0.00 | 23 | 1015.1 |
| 20260906114613 | 72 | 72 | 10.0 | 16.0 | 0.00 | 0.00 | 0.00 | 24 | 1015.0 |
| 20260906113624 | 73 | 145 | 11.0 | 15.0 | 0.00 | 0.00 | 0.00 | 23 | 1015.0 |
| 20260906112615 | 75 | 123 | 10.0 | 16.0 | 0.00 | 0.00 | 0.00 | 22 | 1015.0 |
| 20260906111646 | 75 | 96 | 9.0 | 16.0 | 0.00 | 0.00 | 0.00 | 22 | 1015.0 |
| 20260906110620 | 76 | 169 | 9.0 | 17.0 | 0.00 | 0.00 | 0.00 | 20 | 1015.0 |
| 20260906105621 | 76 | 142 | 11.0 | 17.0 | 0.00 | 0.00 | 0.00 | 20 | 1015.1 |
| 20260906104632 | 75 | 132 | 10.0 | 14.0 | 0.00 | 0.00 | 0.00 | 20 | 1015.0 |
| 20260906103620 | 74 | 81 | 7.0 | 15.0 | 0.00 | 0.00 | 0.00 | 21 | 1015.0 |
| 20260906102613 | 73 | 91 | 7.0 | 16.0 | 0.00 | 0.00 | 0.00 | 21 | 1014.9 |
| 20260906101622 | 74 | 139 | 8.0 | 14.0 | 0.00 | 0.00 | 0.00 | 21 | 1014.8 |
| 20260906100612 | 75 | 121 | 8.0 | 15.0 | 0.00 | 0.00 | 0.00 | 21 | 1014.8 |
| 20260906095617 | 75 | 128 | 7.0 | 10.0 | 0.00 | 0.00 | 0.00 | 19 | 1014.6 |
| 20260906094612 | 77 | 129 | 5.0 | 10.0 | 0.00 | 0.00 | 0.00 | 18 | 1014.6 |
| 20260906093624 | 78 | 360 | 8.0 | 21.0 | 0.00 | 0.00 | 0.00 | 18 | 1014.6 |
| 20260906092615 | 75 | 136 | 4.0 | 11.0 | 0.00 | 0.00 | 0.00 | 21 | 1014.6 |
| 20260906091630 | 75 | 138 | 8.0 | 14.0 | 0.00 | 0.00 | 0.00 | 21 | 1014.6 |
| 20260906090622 | 75 | 101 | 7.0 | 12.0 | 0.00 | 0.00 | 0.00 | 21 | 1014.5 |
| 20260906085646 | 76 | 128 | 7.0 | 12.0 | 0.00 | 0.00 | 0.00 | 19 | 1014.4 |
| 20260906084616 | 76 | 116 | 5.0 | 10.0 | 0.00 | 0.00 | 0.00 | 20 | 1014.4 |
| 20260906083627 | 74 | 98 | 7.0 | 12.0 | 0.00 | 0.00 | 0.00 | 20 | 1014.3 |
| 20260906082622 | 76 | 88 | 7.0 | 14.0 | 0.00 | 0.00 | 0.00 | 20 | 1014.3 |
| 20260906081613 | 74 | 129 | 5.0 | 15.0 | 0.00 | 0.00 | 0.00 | 20 | 1014.3 |
| 20260906080624 | 71 | 101 | 9.0 | 13.0 | 0.00 | 0.00 | 0.00 | 24 | 1014.3 |
| 20260906075631 | 73 | 87 | 6.0 | 12.0 | 0.00 | 0.00 | 0.00 | 21 | 1014.4 |
| 20260906074621 | 75 | 139 | 5.0 | 13.0 | 0.00 | 0.00 | 0.00 | 19 | 1014.4 |
| 20260906073612 | 76 | 132 | 7.0 | 18.0 | 0.00 | 0.00 | 0.00 | 20 | 1014.4 |
| 20260906072644 | 76 | 360 | 6.0 | 16.0 | 0.00 | 0.00 | 0.00 | 19 | 1014.4 |
| 20260906071635 | 80 | 136 | 10.0 | 18.0 | 0.00 | 0.00 | 0.00 | 15 | 1014.4 |
| 20260906070628 | 79 | 150 | 9.0 | 13.0 | 0.00 | 0.00 | 0.00 | 15 | 1014.3 |
| 20260906065632 | 77 | 360 | 9.0 | 15.0 | 0.00 | 0.00 | 0.00 | 16 | 1014.3 |
| 20260906064622 | 80 | 360 | 9.0 | 18.0 | 0.00 | 0.00 | 0.00 | 15 | 1014.4 |
| 20260906063617 | 78 | 360 | 6.0 | 12.0 | 0.00 | 0.00 | 0.00 | 17 | 1014.3 |
| 20260906062649 | 79 | 142 | 5.0 | 13.0 | 0.00 | 0.00 | 0.00 | 16 | 1014.2 |
| 20260906061640 | 78 | 360 | 8.0 | 16.0 | 0.00 | 0.00 | 0.00 | 15 | 1014.1 |
| 20260906060619 | 78 | 360 | 5.0 | 15.0 | 0.00 | 0.00 | 0.00 | 20 | 1014.1 |
| 20260906055621 | 79 | 180 | 9.0 | 20.0 | 0.00 | 0.00 | 0.00 | 15 | 1014.3 |
| 20260906054615 | 74 | 192 | 8.0 | 15.0 | 0.00 | 0.00 | 0.00 | 20 | 1014.1 |
| 20260906053627 | 74 | 118 | 7.0 | 14.0 | 0.00 | 0.00 | 0.00 | 25 | 1014.3 |
| 20260906052617 | 76 | 142 | 8.0 | 12.0 | 0.00 | 0.00 | 0.00 | 21 | 1014.1 |
| 20260906051627 | 76 | 136 | 6.0 | 16.0 | 0.00 | 0.00 | 0.00 | 18 | 1014.1 |
| 20260906050621 | 72 | 119 | 9.0 | 19.0 | 0.00 | 0.00 | 0.00 | 24 | 1014.1 |
| 20260906045623 | 72 | 128 | 11.0 | 17.0 | 0.00 | 0.00 | 0.00 | 26 | 1014.1 |
| 20260906044613 | 72 | 126 | 11.0 | 18.0 | 0.00 | 0.00 | 0.00 | 28 | 1014.2 |
| 20260906043622 | 72 | 119 | 13.0 | 20.0 | 0.00 | 0.00 | 0.00 | 27 | 1014.0 |
| 20260906042636 | 72 | 155 | 13.0 | 21.0 | 0.00 | 0.00 | 0.00 | 26 | 1014.1 |
| 20260906041646 | 72 | 112 | 13.0 | 19.0 | 0.00 | 0.00 | 0.00 | 27 | 1014.0 |
| 20260906040615 | 72 | 55 | 11.0 | 21.0 | 0.00 | 0.00 | 0.00 | 25 | 1013.9 |
| 20260906035617 | 72 | 80 | 12.0 | 21.0 | 0.00 | 0.00 | 0.00 | 26 | 1013.9 |
| 20260906034630 | 72 | 111 | 11.0 | 17.0 | 0.00 | 0.00 | 0.00 | 26 | 1013.8 |
| 20260906033619 | 72 | 72 | 12.0 | 19.0 | 0.00 | 0.00 | 0.00 | 26 | 1013.7 |
| 20260906032629 | 72 | 130 | 11.0 | 20.0 | 0.00 | 0.00 | 0.00 | 25 | 1013.8 |
| 20260906031619 | 73 | 127 | 11.0 | 17.0 | 0.00 | 0.00 | 0.00 | 25 | 1013.8 |
| 20260906030613 | 73 | 86 | 9.0 | 17.0 | 0.00 | 0.00 | 0.00 | 26 | 1013.7 |
| 20260906025615 | 73 | 142 | 11.0 | 17.0 | 0.00 | 0.00 | 0.00 | 26 | 1013.5 |
| 20260906024626 | 74 | 80 | 10.0 | 18.0 | 0.00 | 0.00 | 0.00 | 25 | 1013.5 |
| 20260906023616 | 74 | 100 | 9.0 | 15.0 | 0.00 | 0.00 | 0.00 | 24 | 1013.3 |
| 20260906022631 | 75 | 127 | 6.0 | 14.0 | 0.00 | 0.00 | 0.00 | 25 | 1013.3 |
| 20260906021642 | 76 | 122 | 7.0 | 13.0 | 0.00 | 0.00 | 0.00 | 23 | 1013.2 |
| 20260906020631 | 76 | 87 | 6.0 | 12.0 | 0.00 | 0.00 | 0.00 | 23 | 1013.2 |
| 20260906015631 | 77 | 98 | 6.0 | 9.0 | 0.00 | 0.00 | 0.00 | 23 | 1013.3 |
| 20260906014648 | 78 | 100 | 7.0 | 11.0 | 0.00 | 0.00 | 0.00 | 22 | 1013.4 |
| 20260906013638 | 82 | 113 | 5.0 | 9.0 | 0.00 | 0.00 | 0.00 | 20 | 1013.5 |
| 20260906012627 | 83 | 275 | 0.0 | 1.0 | 0.00 | 0.00 | 0.00 | 18 | 1013.6 |
| 20260906011617 | 83 | 275 | 0.0 | 4.0 | 0.00 | 0.00 | 0.00 | 20 | 1013.7 |
| 20260906010630 | 84 | 360 | 1.0 | 3.0 | 0.00 | 0.00 | 0.00 | 18 | 1013.8 |
| 20260906005612 | 85 | 268 | 1.0 | 4.0 | 0.00 | 0.00 | 0.00 | 17 | 1013.8 |
| 20260906004621 | 85 | 267 | 2.0 | 3.0 | 0.00 | 0.00 | 0.00 | 17 | 1013.9 |
| 20260906003630 | 85 | 267 | 2.0 | 6.0 | 0.00 | 0.00 | 0.00 | 16 | 1013.9 |
| 20260906002624 | 85 | 360 | 3.0 | 5.0 | 0.00 | 0.00 | 0.00 | 16 | 1014.0 |
| 20260906001612 | 84 | 360 | 3.0 | 8.0 | 0.00 | 0.00 | 0.00 | 17 | 1014.1 |
| 20260906000642 | 85 | 360 | 4.0 | 10.0 | 0.00 | 0.00 | 0.00 | 17 | 1014.1 |
| 20260905235622 | 85 | 360 | 3.0 | 11.0 | 0.00 | 0.00 | 0.00 | 16 | 1014.1 |